Datetime,EastMidlands,SouthWales,SouthWest,WestMidlands
2022-11-23 00:00:00,2638.12286,1000.1980379999999,1213.2322,2461.5508600000003
2022-11-23 00:05:00,2653.93362,1014.704762,1256.1218,2491.84584
2022-11-23 00:10:00,2644.14268,1050.19748,1263.72676,2475.84498
2022-11-23 00:15:00,2639.2091800000003,1060.64132,1264.7398400000002,2472.02498
2022-11-23 00:20:00,2626.34888,1055.66608,1261.5215200000002,2465.8516800000007
2022-11-23 00:25:00,2644.9666599999996,1062.91214,1259.6176999999998,2467.5442000000003
2022-11-23 00:30:00,2676.84902,1089.60564,1271.9707999999998,2498.3291
2022-11-23 00:35:00,2730.03232,1052.36572,1278.49054,2524.11945
2022-11-23 00:40:00,2731.46996,1032.6529880000003,1282.98724,2529.34498
2022-11-23 00:45:00,2714.1072799999997,1031.072998,1282.16002,2534.86
2022-11-23 00:50:00,2708.0846599999995,1035.3738925,1275.7225,2522.76166
2022-11-23 00:55:00,2702.4695199999996,1021.8644549999999,1270.42852,2523.07332
2022-11-23 01:00:00,2711.15258,1020.283916,1266.7873800000002,2520.65086
2022-11-23 01:05:00,2703.9178399999996,1011.18743,1259.2844,2512.8708400000005
2022-11-23 01:10:00,2694.6556600000004,1014.9012919999999,1252.20498,2505.7834
2022-11-23 01:15:00,2691.57388,1012.6503,1251.45042,2503.73672
2022-11-23 01:20:00,2677.88116,1011.5553,1240.31408,2498.7583750000003
2022-11-23 01:25:00,2664.1531600000003,1002.5162720000001,1235.3288799999998,2490.618766666667
2022-11-23 01:30:00,2656.9708600000004,990.857712,1228.30074,2495.8774999999996
2022-11-23 01:35:00,2654.900525,984.894912,1225.1724,2495.13666
2022-11-23 01:40:00,2646.9630500000003,980.7170979999999,1217.32576,2480.9025200000005
2022-11-23 01:45:00,2639.9181,989.7874939999999,1213.22785,2476.7125000000005
2022-11-23 01:50:00,2635.8883166666665,970.162032,1209.4797499999997,2471.38668
2022-11-23 01:55:00,2630.9674800000003,974.7177800000002,1207.6791,2468.99334
2022-11-23 02:00:00,2619.01034,981.771918,1208.22098,2461.7942000000003
2022-11-23 02:05:00,2617.1258199999997,1000.522616,1204.2729,2453.3687
2022-11-23 02:10:00,2613.61498,980.18019,1198.12868,2449.1424
2022-11-23 02:15:00,2611.77418,953.42874,1196.9485,2447.29916
2022-11-23 02:20:00,2610.4903799999997,949.5217,1192.9546599999999,2440.46166
2022-11-23 02:25:00,2607.37574,946.4045619999999,1188.77062,2443.46086
2022-11-23 02:30:00,2608.5737400000003,939.650634,1185.0496399999997,2442.8024800000003
2022-11-23 02:35:00,2604.55904,942.2231100000001,1183.9307199999998,2453.2008
2022-11-23 02:40:00,2597.41028,933.516,1180.89946,2462.15
2022-11-23 02:45:00,2587.7015,935.5987583333332,1171.49192,2451.94752
2022-11-23 02:50:00,2570.0466800000004,929.0370299999998,1166.0036400000001,2435.66752
2022-11-23 02:55:00,2567.43876,919.2915740000001,1165.6308000000001,2426.37916
2022-11-23 03:00:00,2557.41698,920.0775299999999,1161.75152,2405.84748
2022-11-23 03:05:00,2554.828,914.724494,1154.65448,2403.8525
2022-11-23 03:10:00,2543.85604,918.26176,1151.0079,2402.0399399999997
2022-11-23 03:15:00,2536.7750399999995,922.9253980000001,1154.9366400000001,2396.57416
2022-11-23 03:20:00,2531.93782,916.1383579999999,1137.54578,2384.41832
2022-11-23 03:25:00,2532.6418599999997,929.9656419999999,1134.4375799999998,2392.4624799999997
2022-11-23 03:30:00,2534.1192,926.7894319999999,1135.97024,2388.43832
2022-11-23 03:35:00,2533.88468,931.985312,1137.8528000000001,2389.80916
2022-11-23 03:40:00,2535.71364,925.5585720000001,1138.8232,2392.63244
2022-11-23 03:45:00,2533.4665400000004,923.421342,1134.45442,2395.32834
2022-11-23 03:50:00,2529.70636,929.748174,1126.50456,2386.62246
2022-11-23 03:55:00,2527.19566,941.720206,1125.71894,2380.9825
2022-11-23 04:00:00,2530.26022,930.9869199999999,1114.5657,2374.6567000000005
2022-11-23 04:05:00,2537.31048,938.528832,1119.5921500000002,2377.03584
2022-11-23 04:10:00,2538.6655199999996,935.5010900000001,1119.8766600000001,2381.23
2022-11-23 04:15:00,2530.9783199999997,934.717496,1113.3097400000001,2379.3017
2022-11-23 04:20:00,2537.9855799999996,914.76576,1108.74024,2372.79082
2022-11-23 04:25:00,2542.2015199999996,912.2152399999999,1104.55186,2372.06328
2022-11-23 04:30:00,2542.4540399999996,901.6157099999998,1104.795,2372.6650199999995
2022-11-23 04:35:00,2532.4977,904.57563,1102.51476,2363.72582
2022-11-23 04:40:00,2527.96504,915.50647,1100.4178399999998,2362.34752
2022-11-23 04:45:00,2530.4844399999997,945.2130800000001,1104.07358,2367.46006
2022-11-23 04:50:00,2539.1536600000004,954.7380899999998,1105.48608,2381.09004
2022-11-23 04:55:00,2539.2680800000003,945.182338,1103.30268,2387.1528
2022-11-23 05:00:00,2551.65828,959.86642,1113.29608,2406.132
2022-11-23 05:05:00,2564.80016,1002.304168,1120.35002,2426.61416
2022-11-23 05:10:00,2568.59038,1033.62708,1123.76142,2464.55752
2022-11-23 05:15:00,2577.00608,1019.108168,1118.6846200000002,2458.6479
2022-11-23 05:20:00,2586.7106400000002,1016.5191579999998,1120.12308,2472.4903
2022-11-23 05:25:00,2598.6373200000003,1008.488264,1125.3279200000002,2487.3625
2022-11-23 05:30:00,2619.3498600000003,1007.348294,1135.84432,2510.605
2022-11-23 05:35:00,2648.6771799999997,1031.4867,1146.25954,2534.127075
2022-11-23 05:40:00,2672.15484,1036.4684200000002,1155.1475999999998,2568.6277833333334
2022-11-23 05:45:00,2686.51902,1027.650268,1162.92662,2569.01754
2022-11-23 05:50:00,2708.40648,1041.4349,1170.7541,2578.14668
2022-11-23 05:55:00,2737.6357199999998,1067.12844,1182.77174,2603.23416
2022-11-23 06:00:00,2796.00325,1091.1265,1216.40676,2665.9908600000003
2022-11-23 06:05:00,2870.726383333333,1120.74142,1246.51922,2714.80082
2022-11-23 06:10:00,2927.4242,1138.0694799999999,1260.7079,2749.40084
2022-11-23 06:15:00,2967.16124,1138.9393400000001,1276.6731599999998,2773.2283199999997
2022-11-23 06:20:00,3012.6401600000004,1167.0902,1292.5786,2766.0093500000003
2022-11-23 06:25:00,3031.9301750000004,1146.09042,1305.6166,2788.7582666666663
2022-11-23 06:30:00,3066.4888166666674,1139.82035,1328.5945166666668,2827.55752
2022-11-23 06:35:00,3122.95966,1191.4668499999998,1366.7164,2869.33424
2022-11-23 06:40:00,3157.35484,1207.20775,1384.2419800000002,2891.54158
2022-11-23 06:45:00,3197.4029800000003,1220.4889,1403.04622,2929.418675
2022-11-23 06:50:00,3231.8264,1234.38594,1421.9980600000001,2951.09998
2022-11-23 06:55:00,3243.3733333333334,1228.0487600000001,1443.05592,2986.42575
2022-11-23 07:00:00,3295.0158199999996,1260.1484400000002,1477.6775749999997,3043.5916399999996
2022-11-23 07:05:00,3346.80066,1288.35254,1505.13884,3100.817725
2022-11-23 07:10:00,3388.93796,1290.82608,1524.5185666666666,3147.9388999999996
2022-11-23 07:15:00,3406.69714,1300.27012,1539.97766,3182.403125
2022-11-23 07:20:00,3431.5474799999997,1310.25548,1556.16866,3214.3153
2022-11-23 07:25:00,3469.3678,1312.4515,1553.47114,3227.7850000000003
2022-11-23 07:30:00,3483.31706,1305.6471999999999,1555.86676,3251.33248
2022-11-23 07:35:00,3504.6019800000004,1305.9640599999998,1569.82208,3269.02084
2022-11-23 07:40:00,3497.04496,1295.54388,1574.8447800000001,3272.2450799999997
2022-11-23 07:45:00,3527.31452,1312.8125400000001,1579.9546400000002,3279.70498
2022-11-23 07:50:00,3541.7944799999996,1299.08764,1586.8924,3300.10418
2022-11-23 07:55:00,3569.72955,1290.75378,1590.3282749999998,3309.41584
2022-11-23 08:00:00,3623.8940500000003,1299.40656,1599.7404833333333,3348.4466600000005
2022-11-23 08:05:00,3669.4779800000006,1315.28678,1609.55134,3372.699975
2022-11-23 08:10:00,3689.969725,1330.62764,1607.58998,3373.76735
2022-11-23 08:15:00,3686.5041333333334,1331.80084,1607.4183200000002,3372.2891800000007
2022-11-23 08:20:00,3712.5461999999998,1333.19996,1601.3217,3378.59832
2022-11-23 08:25:00,3716.25028,1339.5031,1601.2062799999999,3383.08836
2022-11-23 08:30:00,3728.13384,1346.3036399999999,1593.62658,3383.61584
2022-11-23 08:35:00,3744.6418599999997,1366.6095,1593.5855800000002,3383.8374599999997
2022-11-23 08:40:00,3772.0123,1378.32984,1593.2260600000002,3390.5582999999997
2022-11-23 08:45:00,3760.09194,1360.72466,1585.34202,3398.61334
2022-11-23 08:50:00,3777.2629799999995,1366.5569,1581.50238,3410.5683799999997
2022-11-23 08:55:00,3792.4902799999995,1369.5694600000002,1585.38374,3430.1641600000003
2022-11-23 09:00:00,3794.247259999999,1366.0256399999998,1597.25368,3450.88988
2022-11-23 09:05:00,3792.99516,1355.93676,1605.21856,3451.76166
2022-11-23 09:10:00,3785.28266,1348.47736,1609.7163,3451.12
2022-11-23 09:15:00,3783.1718199999996,1355.1802400000001,1604.5056399999999,3451.9782800000003
2022-11-23 09:20:00,3789.3476600000004,1359.39592,1596.26836,3438.5700000000006
2022-11-23 09:25:00,3786.35464,1392.70774,1595.34474,3428.8959
2022-11-23 09:30:00,3770.93278,1396.7355400000001,1584.86798,3424.3103666666666
2022-11-23 09:35:00,3746.30498,1385.1652600000002,1582.79714,3404.2366799999995
2022-11-23 09:40:00,3742.1314600000005,1396.97725,1577.9716199999998,3406.34
2022-11-23 09:45:00,3760.7683600000005,1411.8065666666669,1570.13452,3405.37834
2022-11-23 09:50:00,3738.8558199999998,1440.8818999999999,1559.8745599999997,3406.4514799999997
2022-11-23 09:55:00,3715.67218,1439.8075999999996,1555.9844600000001,3401.61832
2022-11-23 10:00:00,3731.1759599999996,1430.831,1548.91318,3400.6297999999997
2022-11-23 10:05:00,3719.0754,1437.37822,1548.25886,3393.6266599999994
2022-11-23 10:10:00,3697.95602,1452.0478,1553.9639399999999,3374.75752
2022-11-23 10:15:00,3694.59298,1450.25075,1541.08304,3373.3583200000003
2022-11-23 10:20:00,3677.3619599999997,1434.16342,1531.5796000000003,3384.1783200000004
2022-11-23 10:25:00,3679.7797,1472.7360599999997,1512.84442,3391.99914
2022-11-23 10:30:00,3689.9087999999997,1463.09592,1504.9289800000001,3385.81916
2022-11-23 10:35:00,3700.0619999999994,1442.6164800000001,1503.0508,3388.1567800000003
2022-11-23 10:40:00,3675.2760200000002,1444.18014,1494.47496,3376.90332
2022-11-23 10:45:00,3682.5604200000002,1423.4846,1487.04386,3374.67664
2022-11-23 10:50:00,3660.3816999999995,1407.3015666666668,1477.9410249999999,3377.92578
2022-11-23 10:55:00,3629.1815,1415.51314,1489.8680000000002,3366.4674400000004
2022-11-23 11:00:00,3583.46376,1404.1468599999998,1484.2217999999998,3366.9869400000002
2022-11-23 11:05:00,3629.0623,1417.4126,1492.67246,3348.1566999999995
2022-11-23 11:10:00,3624.6686999999997,1413.39502,1522.01682,3352.1683999999996
2022-11-23 11:15:00,3614.3396999999995,1394.55846,1517.4186999999997,3357.78254
2022-11-23 11:20:00,3578.6554800000004,1364.6189,1528.1337199999998,3366.6020500000004
2022-11-23 11:25:00,3548.1451800000004,1376.0113833333335,1535.0616999999997,3362.563616666667
2022-11-23 11:30:00,3540.2404799999995,1425.23946,1503.03948,3366.0738599999995
2022-11-23 11:35:00,3546.82868,1438.84344,1518.63236,3369.1642199999997
2022-11-23 11:40:00,3573.3873200000003,1441.1950399999998,1516.4500199999998,3371.4941400000002
2022-11-23 11:45:00,3599.05772,1433.9295399999999,1491.2752,3336.59916
2022-11-23 11:50:00,3621.96252,1425.42698,1494.3485999999998,3338.9108199999996
2022-11-23 11:55:00,3623.71198,1436.0897,1517.83628,3363.1761400000005
2022-11-23 12:00:00,3605.9038,1434.21478,1487.81014,3371.51412
2022-11-23 12:05:00,3600.44415,1423.4575399999999,1475.3954600000002,3386.5625499999996
2022-11-23 12:10:00,3595.00668,1401.95426,1501.71292,3407.3187166666667
2022-11-23 12:15:00,3575.37448,1389.61362,1529.0738000000001,3423.435
2022-11-23 12:20:00,3540.0771,1398.90694,1524.55306,3426.779175
2022-11-23 12:25:00,3521.357,1407.60656,1521.95922,3432.5416400000004
2022-11-23 12:30:00,3533.3821199999998,1412.25948,1508.3997,3435.789583333333
2022-11-23 12:35:00,3531.1554599999995,1409.52512,1515.58856,3410.6524999999992
2022-11-23 12:40:00,3517.436275,1418.33458,1508.9332000000002,3394.7325599999995
2022-11-23 12:45:00,3505.5162333333333,1437.1337399999998,1500.15016,3402.72395
2022-11-23 12:50:00,3506.9615399999993,1438.2429799999998,1471.9580799999999,3402.5757
2022-11-23 12:55:00,3516.0699999999997,1423.9611799999998,1450.64828,3408.05164
2022-11-23 13:00:00,3546.2369166666663,1402.4044399999998,1451.03864,3418.19574
2022-11-23 13:05:00,3551.785,1375.87526,1445.2064599999999,3394.67502
2022-11-23 13:10:00,3534.8811800000003,1357.3772800000002,1430.3452399999999,3378.3333
2022-11-23 13:15:00,3546.5741399999997,1379.26908,1425.15956,3373.99664
2022-11-23 13:20:00,3568.3485199999996,1383.69072,1421.76196,3375.09914
2022-11-23 13:25:00,3620.05418,1371.74202,1428.2378199999998,3364.19498
2022-11-23 13:30:00,3610.9916599999997,1397.44048,1447.6574,3366.22395
2022-11-23 13:35:00,3606.25066,1378.9402,1461.3597399999999,3366.581233333333
2022-11-23 13:40:00,3621.8263399999996,1409.91156,1471.9927000000002,3357.4316400000002
2022-11-23 13:45:00,3638.3775200000005,1436.19114,1483.2506600000002,3364.50248
2022-11-23 13:50:00,3606.5218800000002,1449.5392399999998,1493.52694,3364.88004
2022-11-23 13:55:00,3598.5929600000004,1441.27872,1500.73076,3345.49664
2022-11-23 14:00:00,3603.13108,1431.40102,1502.4639,3362.48916
2022-11-23 14:05:00,3600.08404,1449.07182,1501.9347599999999,3345.44332
2022-11-23 14:10:00,3578.5543599999996,1446.7451999999998,1494.70726,3345.1683000000003
2022-11-23 14:15:00,3563.33866,1414.4371999999998,1488.4696,3346.62418
2022-11-23 14:20:00,3555.3020500000002,1430.5611000000001,1487.0079600000001,3359.3066200000003
2022-11-23 14:25:00,3590.8049833333334,1429.20486,1489.16454,3344.86252
2022-11-23 14:30:00,3597.89052,1437.4225000000001,1496.95582,3332.07834
2022-11-23 14:35:00,3612.81016,1446.0828000000001,1494.2031,3335.1741799999995
2022-11-23 14:40:00,3597.8135,1438.6436166666665,1497.57912,3326.88338
2022-11-23 14:45:00,3562.31852,1434.7571999999998,1501.58696,3316.9266199999997
2022-11-23 14:50:00,3535.3954400000002,1441.24042,1507.4956000000002,3321.1308599999998
2022-11-23 14:55:00,3517.5766599999997,1460.29826,1519.0163800000003,3318.72418
2022-11-23 15:00:00,3505.2115400000002,1453.5685399999998,1527.5193,3310.9635749999998
2022-11-23 15:05:00,3496.71616,1449.8876999999998,1530.72928,3313.0825000000004
2022-11-23 15:10:00,3530.0725599999996,1441.37876,1535.75278,3319.8694333333337
2022-11-23 15:15:00,3526.91295,1439.1582,1540.2559,3331.237475
2022-11-23 15:20:00,3535.3953166666665,1457.06418,1545.8177799999999,3335.625
2022-11-23 15:25:00,3580.7922,1449.4653400000002,1552.3930999999998,3349.3282200000003
2022-11-23 15:30:00,3628.68486,1465.6859,1561.3694600000001,3364.1298
2022-11-23 15:35:00,3660.6054,1470.99386,1570.8798199999999,3384.8175199999996
2022-11-23 15:40:00,3708.1314,1481.02938,1584.8858000000002,3400.385975
2022-11-23 15:45:00,3747.41054,1471.97496,1607.01854,3418.3491799999997
2022-11-23 15:50:00,3775.5024999999996,1479.2443600000001,1618.18084,3447.9014
2022-11-23 15:55:00,3790.7029799999996,1487.2747599999998,1621.9622,3460.85216
2022-11-23 16:00:00,3795.91152,1485.5877400000002,1645.0924166666666,3484.14166
2022-11-23 16:05:00,3812.88052,1498.5462,1668.2883000000002,3497.31332
2022-11-23 16:10:00,3829.0226199999997,1517.9929800000002,1680.55648,3521.06082
2022-11-23 16:15:00,3860.414975,1538.02844,1701.30154,3570.84375
2022-11-23 16:20:00,3899.3266666666664,1540.73758,1759.38102,3590.9312166666664
2022-11-23 16:25:00,3945.5509399999996,1544.9104200000002,1760.4493200000002,3605.94176
2022-11-23 16:30:00,3964.3269,1561.9288199999999,1765.31338,3632.3754999999996
2022-11-23 16:35:00,3952.8611999999994,1569.65246,1788.87058,3652.2657999999997
2022-11-23 16:40:00,3935.5379999999996,1559.25454,1815.70346,3661.7875
2022-11-23 16:45:00,3966.9591499999997,1557.4268,1835.9352250000002,3679.0641600000004
2022-11-23 16:50:00,3970.1807166666663,1568.78884,1859.8032999999998,3699.72584
2022-11-23 16:55:00,3962.3468399999997,1571.16484,1871.71884,3701.9364499999997
2022-11-23 17:00:00,3968.5559999999996,1570.36932,1882.33192,3703.7110833333336
2022-11-23 17:05:00,3991.2760000000003,1570.16356,1885.9488400000002,3703.3033599999994
2022-11-23 17:10:00,3984.46864,1564.4949000000001,1900.8341400000002,3702.49666
2022-11-23 17:15:00,3971.7563599999994,1570.55588,1909.23358,3707.11164
2022-11-23 17:20:00,3982.71742,1563.20232,1916.2173599999999,3705.46912
2022-11-23 17:25:00,3956.0333,1570.80868,1919.6197,3708.4516799999997
2022-11-23 17:30:00,3971.2465,1584.80748,1914.47,3696.8791599999995
2022-11-23 17:35:00,3954.8005,1577.0889200000001,1910.59646,3680.4416499999998
2022-11-23 17:40:00,3970.6887199999996,1567.93166,1914.8540600000001,3674.716666666667
2022-11-23 17:45:00,3964.5898400000005,1583.0423999999998,1932.359,3669.7433600000004
2022-11-23 17:50:00,3955.5004999999996,1608.1639799999998,1916.15292,3676.249025
2022-11-23 17:55:00,3922.91898,1603.04712,1906.45062,3657.8423666666663
2022-11-23 18:00:00,3916.3444600000003,1600.4436600000001,1907.54178,3649.5474600000002
2022-11-23 18:05:00,3915.1596399999994,1582.7631800000001,1898.59306,3638.46584
2022-11-23 18:10:00,3908.33558,1574.72124,1889.8484400000002,3629.5417399999997
2022-11-23 18:15:00,3881.71656,1567.44088,1883.44496,3618.09082
2022-11-23 18:20:00,3865.96294,1554.5548599999997,1874.1849399999999,3615.2491199999995
2022-11-23 18:25:00,3863.0915400000004,1502.77846,1865.28096,3601.85084
2022-11-23 18:30:00,3868.2756600000002,1463.8752,1885.3692000000003,3581.79585
2022-11-23 18:35:00,3857.2511,1456.4533333333331,1881.87142,3582.970116666667
2022-11-23 18:40:00,3846.00412,1464.373125,1875.4565200000002,3580.0625199999995
2022-11-23 18:45:00,3852.436,1471.1700833333334,1870.3027399999999,3573.59685
2022-11-23 18:50:00,3847.2244,1469.7403199999999,1858.56862,3558.19502
2022-11-23 18:55:00,3825.48268,1463.9797599999997,1841.8841,3529.8687166666664
2022-11-23 19:00:00,3802.92012,1455.6937000000003,1806.2442999999998,3490.6600399999998
2022-11-23 19:05:00,3799.95118,1440.28056,1798.1098399999998,3459.07412
2022-11-23 19:10:00,3786.2279399999998,1425.1227,1789.4135999999999,3452.0824399999997
2022-11-23 19:15:00,3780.6305,1419.48486,1780.6514599999998,3448.30084
2022-11-23 19:20:00,3749.7556400000003,1413.63522,1763.57124,3421.5021500000003
2022-11-23 19:25:00,3740.31132,1430.4049,1748.5447800000002,3407.5235833333336
2022-11-23 19:30:00,3733.309975,1426.2310400000001,1733.2091399999997,3390.1241999999997
2022-11-23 19:35:00,3698.45055,1403.77264,1723.3061999999998,3385.2150199999996
2022-11-23 19:40:00,3665.31112,1401.48636,1717.0114600000002,3375.71662
2022-11-23 19:45:00,3645.787675,1397.9759600000002,1705.1663800000001,3367.8533
2022-11-23 19:50:00,3618.6559,1395.1605000000002,1691.8287799999998,3347.3741999999997
2022-11-23 19:55:00,3620.77232,1386.34306,1683.9917999999998,3335.0902
2022-11-23 20:00:00,3629.7066,1362.8941399999999,1682.2387800000001,3306.94082
2022-11-23 20:05:00,3615.72304,1355.39254,1673.73492,3281.0608399999996
2022-11-23 20:10:00,3581.2888599999997,1340.27744,1659.25254,3264.0017
2022-11-23 20:15:00,3566.5265200000003,1319.34568,1651.56754,3246.37172
2022-11-23 20:20:00,3564.58646,1290.50362,1631.3008,3230.4949800000004
2022-11-23 20:25:00,3566.6206,1286.3199200000001,1611.31416,3229.25834
2022-11-23 20:30:00,3594.596233333333,1268.7166000000002,1587.5766400000002,3193.3558199999998
2022-11-23 20:35:00,3576.7666600000002,1282.47354,1574.2657199999999,3177.5158399999996
2022-11-23 20:40:00,3558.95166,1285.66718,1566.5095800000001,3159.9225
2022-11-23 20:45:00,3551.6941000000006,1295.3506000000002,1558.6453999999999,3153.6824800000004
2022-11-23 20:50:00,3511.45084,1282.44322,1537.4714800000002,3140.28664
2022-11-23 20:55:00,3512.78154,1267.25926,1525.27192,3123.34916
2022-11-23 21:00:00,3505.4276400000003,1298.29406,1520.16632,3112.55496
2022-11-23 21:05:00,3463.2298,1337.65042,1502.21114,3081.8515999999995
2022-11-23 21:10:00,3401.28698,1278.48606,1485.9609,3055.4583
2022-11-23 21:15:00,3373.81212,1236.6817400000002,1475.7169600000002,3037.2267
2022-11-23 21:20:00,3351.2515200000003,1265.3654199999996,1454.79322,3009.1641800000007
2022-11-23 21:25:00,3333.27598,1245.0768799999998,1439.08016,2996.0924800000003
2022-11-23 21:30:00,3328.3760199999997,1226.0025,1429.0236,2966.0591400000003
2022-11-23 21:35:00,3309.8366200000005,1217.14758,1417.18242,2955.08166
2022-11-23 21:40:00,3280.9386400000003,1221.0031,1400.8474,2934.91836
2022-11-23 21:45:00,3243.74032,1183.49622,1389.15824,2902.20662
2022-11-23 21:50:00,3237.6704,1167.7838,1380.95896,2881.19334
2022-11-23 21:55:00,3235.7813666666666,1162.0458,1366.76604,2860.44082
2022-11-23 22:00:00,3197.0555200000003,1176.1448,1343.94854,2820.652175
2022-11-23 22:05:00,3168.0449999999996,1176.018,1333.44214,2806.6562833333332
2022-11-23 22:10:00,3143.50454,1175.66564,1323.23918,2786.54996
2022-11-23 22:15:00,3123.1898,1160.2166,1311.1802599999999,2765.1058199999998
2022-11-23 22:20:00,3121.7176,1162.94178,1302.41206,2759.02834
2022-11-23 22:25:00,3093.8497799999996,1146.8281599999998,1288.6945399999997,2732.5907799999995
2022-11-23 22:30:00,3079.4412,1142.52098,1283.47228,2708.3608
2022-11-23 22:35:00,3054.5674,1142.77546,1273.90034,2684.8983200000002
2022-11-23 22:40:00,3023.8935,1118.14228,1261.20738,2655.1733200000003
2022-11-23 22:45:00,3001.32206,1103.5041800000001,1248.51192,2631.679225
2022-11-23 22:50:00,2978.6259,1103.46492,1243.2628200000001,2627.1902833333334
2022-11-23 22:55:00,2957.15122,1076.0403,1230.4079000000002,2605.6461200000003
2022-11-23 23:00:00,2918.0298799999996,1063.8438999999998,1211.0811600000002,2596.2250400000003
2022-11-23 23:05:00,2896.2881199999997,1090.24364,1202.4961600000001,2575.2408
2022-11-23 23:10:00,2864.44198,1078.8381000000002,1205.09722,2555.0667000000003
2022-11-23 23:15:00,2857.9682199999997,1057.7486000000001,1200.84342,2534.59994
2022-11-23 23:20:00,2823.0543000000002,1027.990558,1188.60242,2520.02918
2022-11-23 23:25:00,2818.74562,1012.946844,1177.1263,2495.70252
2022-11-23 23:30:00,2808.87252,1040.6623,1165.7863,2470.44904
2022-11-23 23:35:00,2800.3156000000004,1049.8750599999998,1159.78868,2459.9173
2022-11-23 23:40:00,2791.1095499999997,1056.99614,1150.73,2445.9499600000004
2022-11-23 23:45:00,2774.6919333333335,1060.0899,1147.33924,2430.7135000000003
2022-11-23 23:50:00,2759.5177,1060.55432,1147.8473,2426.94515
2022-11-23 23:55:00,2741.2794999999996,1058.53704,1156.517575,2430.552075
